Вернуться в каталог

COSMOS 2168

АктивенНавигацияPO
NORAD 21782·PAYLOAD·🇷🇺 Russia

Запущен Nov 12, 1991 с Plesetsk Cosmodrome

Loading…

Ближайшие Пролёты (ближайшие 24 часа)

TLE

СвежийSource: Space-Track

Эпоха: Sep 14, 2026, 11:58 UTC

1 21782U 91077D   26257.49928168  .00000035  00000-0  13070-3 0  9995
2 21782  82.6001 155.7182 0013236 176.5172 358.0742 12.65533349609096

Отслеживайте COSMOS 2168 в реальном времени с AllMySat

Download on the App Store